KK6MIG-13 Weather Reports


time (UTC)temp
C
wind
direction
speed
KPH
gust
KPH
rain 1hr
cm
rain 24hr
cm
rain mn
cm
humidity
%
barometer
mb
20260505102130 11 279 8.0 14.5 0.03 0.25 0.15 1 1013.2
20260505102030 11 267 8.0 14.5 0.03 0.25 0.15 1 1013.2
20260505101930 11 258 8.0 14.5 0.00 0.23 0.15 1 1013.2
20260505101829 11 251 8.0 16.1 0.00 0.23 0.13 1 1013.2
20260505101728 11 275 8.0 16.1 0.00 0.23 0.13 1 1013.2
20260505101628 11 289 8.0 16.1 0.00 0.23 0.13 1 1013.2
20260505101528 11 303 8.0 16.1 0.00 0.23 0.13 1 1013.2
20260505101426 11 327 8.0 16.1 0.00 0.23 0.13 1 1013.2
20260505101325 11 271 8.0 16.1 0.00 0.23 0.13 1 1013.2
20260505101234 11 282 8.0 16.1 0.00 0.23 0.13 1 1013.3
20260505101230 11 277 8.0 16.1 0.00 0.23 0.13 1 1013.3
20260505101029 11 271 6.4 16.1 0.00 0.23 0.13 1 1013.3
20260505101024 11 248 8.0 16.1 0.00 0.23 0.13 1 1013.3
20260505100818 11 261 6.4 12.9 0.00 0.23 0.13 1 1013.4
20260505100718 11 261 6.4 12.9 0.00 0.23 0.13 1 1013.4
20260505100616 11 290 6.4 12.9 0.00 0.23 0.13 1 1013.4
20260505100513 11 281 6.4 12.9 0.00 0.23 0.13 1 1013.4
20260505100413 11 273 6.4 12.9 0.00 0.23 0.13 1 1013.4
20260505100313 11 272 6.4 11.3 0.00 0.23 0.13 1 1013.4
20260505100218 11 273 6.4 11.3 0.00 0.23 0.13 1 1013.4
20260505100213 11 279 6.4 11.3 0.00 0.23 0.13 1 1013.4
20260505100003 11 261 6.4 12.9 0.00 0.23 0.13 1 1013.4
20260505095904 11 284 6.4 12.9 0.00 0.23 0.13 1 1013.3
20260505095803 11 269 6.4 12.9 0.00 0.23 0.13 1 1013.3
20260505095703 11 294 6.4 12.9 0.00 0.23 0.13 1 1013.3
20260505095602 11 286 6.4 12.9 0.00 0.23 0.13 1 1013.3
20260505095501 11 275 6.4 12.9 0.00 0.23 0.13 1 1013.3
20260505095402 11 271 6.4 12.9 0.00 0.23 0.13 1 1013.3
20260505095304 11 286 6.4 12.9 0.00 0.23 0.13 1 1013.3
20260505095202 11 284 6.4 12.9 0.00 0.23 0.13 1 1013.3
20260505095101 11 278 6.4 12.9 0.00 0.23 0.13 1 1013.4
20260505095010 11 291 8.0 17.7 0.00 0.23 0.13 1 1013.4
20260505095006 11 296 6.4 16.1 0.00 0.23 0.13 1 1013.4
20260505094801 11 283 8.0 17.7 0.00 0.23 0.13 1 1013.4
20260505094708 11 302 8.0 17.7 0.00 0.23 0.13 1 1013.4
20260505094703 11 277 8.0 17.7 0.00 0.23 0.13 1 1013.4
20260505094459 11 267 8.0 17.7 0.00 0.23 0.13 1 1013.4
20260505094358 11 282 8.0 17.7 0.00 0.23 0.13 1 1013.4
20260505094258 11 286 8.0 17.7 0.00 0.23 0.13 1 1013.4
20260505094157 11 284 6.4 17.7 0.00 0.23 0.13 1 1013.4
20260505094057 11 298 6.4 17.7 0.00 0.23 0.13 1 1013.4
20260505093957 11 299 6.4 17.7 0.00 0.23 0.13 1 1013.4
20260505093749 11 288 6.4 14.5 0.00 0.23 0.13 1 1013.5
20260505093651 11 292 6.4 14.5 0.00 0.23 0.13 1 1013.5
20260505093549 11 311 6.4 14.5 0.00 0.23 0.13 1 1013.5
20260505093449 11 277 6.4 14.5 0.00 0.23 0.13 1 1013.5
20260505093349 11 286 6.4 14.5 0.00 0.23 0.13 1 1013.5
20260505093243 11 289 6.4 14.5 0.00 0.23 0.13 1 1013.5
20260505093143 11 300 6.4 14.5 0.00 0.23 0.13 1 1013.5
20260505093044 11 298 6.4 14.5 0.03 0.23 0.13 1 1013.5
20260505092944 11 295 6.4 14.5 0.03 0.23 0.13 1 1013.6
20260505092842 11 253 8.0 14.5 0.03 0.23 0.13 1 1013.5
20260505092737 11 271 8.0 16.1 0.03 0.23 0.13 1 1013.6
20260505092638 11 277 8.0 19.3 0.03 0.23 0.13 1 1013.6
20260505092538 11 280 9.7 19.3 0.03 0.23 0.13 1 1013.6
20260505092438 11 277 9.7 19.3 0.03 0.23 0.13 1 1013.6
20260505092337 11 268 9.7 19.3 0.03 0.23 0.13 1 1013.6
20260505092232 11 276 9.7 19.3 0.03 0.23 0.13 1 1013.6
20260505092132 11 281 8.0 19.3 0.03 0.23 0.13 1 1013.7
20260505092032 11 300 8.0 19.3 0.03 0.23 0.13 1 1013.7
20260505091931 11 288 8.0 19.3 0.05 0.23 0.13 1 1013.7
20260505091831 11 284 8.0 19.3 0.05 0.23 0.13 1 1013.7
20260505091725 11 302 6.4 19.3 0.05 0.23 0.13 1 1013.7
20260505091625 11 277 6.4 16.1 0.05 0.23 0.13 1 1013.7
20260505091525 11 285 6.4 16.1 0.05 0.23 0.13 1 1013.8
20260505091425 11 296 6.4 14.5 0.05 0.23 0.13 1 1013.8
20260505091325 11 296 6.4 17.7 0.05 0.23 0.13 1 1013.8
20260505091220 11 288 6.4 17.7 0.05 0.23 0.13 1 1013.8
20260505091119 11 275 8.0 17.7 0.05 0.23 0.13 1 1013.8
20260505091019 11 305 8.0 17.7 0.05 0.23 0.13 1 1013.8
20260505090919 11 301 8.0 17.7 0.05 0.23 0.13 1 1013.8
20260505090831 11 288 9.7 17.7 0.05 0.23 0.13 1 1013.8
20260505090827 11 277 9.7 19.3 0.05 0.23 0.13 1 1013.9
20260505090822 11 292 9.7 17.7 0.05 0.23 0.13 1 1013.8
20260505090514 11 270 11.3 19.3 0.08 0.23 0.13 1 1013.8
20260505090414 11 263 9.7 19.3 0.08 0.23 0.13 1 1013.8
20260505090322 11 288 9.7 19.3 0.08 0.23 0.13 1 1013.8
20260505090214 11 277 9.7 19.3 0.08 0.23 0.13 1 1013.8
20260505090010 11 298 8.0 19.3 0.08 0.23 0.13 1 1013.8
20260505085910 11 319 8.0 19.3 0.10 0.23 0.13 1 1013.8
20260505085807 11 277 9.7 19.3 0.10 0.23 0.13 1 1013.9
20260505085702 11 271 8.0 17.7 0.10 0.23 0.13 1 1013.8
20260505085602 11 313 8.0 17.7 0.10 0.23 0.13 1 1013.8
20260505085502 11 286 6.4 17.7 0.10 0.23 0.13 1 1013.9
20260505085402 11 277 6.4 17.7 0.10 0.23 0.13 1 1013.8
20260505085301 11 278 6.4 17.7 0.10 0.23 0.13 1 1013.8
20260505085157 11 270 6.4 17.7 0.10 0.23 0.13 1 1013.8
20260505085055 11 279 6.4 17.7 0.10 0.23 0.13 1 1013.8
20260505084956 11 280 6.4 17.7 0.10 0.23 0.13 1 1013.8
20260505084856 11 256 6.4 17.7 0.10 0.23 0.13 1 1013.7
20260505084755 11 273 6.4 12.9 0.10 0.23 0.13 1 1013.8
20260505084651 11 254 6.4 12.9 0.10 0.23 0.13 1 1013.8
20260505084550 11 274 6.4 12.9 0.10 0.23 0.13 1 1013.8
20260505084449 11 285 6.4 12.9 0.10 0.23 0.13 1 1013.8
20260505084349 11 279 6.4 12.9 0.10 0.23 0.13 1 1013.8
20260505084249 11 273 6.4 12.9 0.10 0.23 0.13 1 1013.8
20260505084144 11 287 6.4 12.9 0.10 0.23 0.13 1 1013.8
20260505084043 11 277 6.4 12.9 0.10 0.23 0.13 1 1013.9
20260505083943 11 279 6.4 12.9 0.10 0.23 0.13 1 1013.8
20260505083843 11 251 6.4 12.9 0.10 0.23 0.13 1 1013.8
20260505083743 11 267 8.0 12.9 0.10 0.23 0.13 1 1013.9
20260505083640 11 270 8.0 14.5 0.10 0.23 0.13 1 1013.9
20260505083537 11 242 8.0 14.5 0.10 0.23 0.13 1 1013.8
20260505083454 11 240 8.0 14.5 0.10 0.23 0.13 1 1013.8
20260505083450 11 273 8.0 14.5 0.10 0.23 0.13 1 1013.8
20260505083446 11 281 8.0 14.5 0.10 0.23 0.13 1 1013.8
20260505083132 11 269 6.4 14.5 0.10 0.23 0.13 1 1013.8
20260505083031 11 280 6.4 14.5 0.10 0.20 0.13 1 1013.8
20260505082931 11 286 6.4 14.5 0.10 0.20 0.10 1 1013.8
20260505082831 11 258 6.4 14.5 0.10 0.20 0.10 1 1013.8
20260505082731 11 281 4.8 14.5 0.10 0.20 0.10 1 1013.8
20260505082625 11 288 4.8 11.3 0.10 0.20 0.10 1 1013.8
20260505082525 11 275 4.8 11.3 0.10 0.20 0.10 1 1013.8
20260505082426 11 273 4.8 11.3 0.10 0.20 0.10 1 1013.8
20260505082325 11 254 4.8 11.3 0.10 0.20 0.10 1 1013.8
20260505082225 11 259 4.8 11.3 0.10 0.20 0.10 1 1013.8
20260505082140 11 274 3.2 6.4 0.08 0.18 0.10 1 1013.9
20260505082136 11 256 3.2 11.3 0.10 0.20 0.10 1 1013.8
20260505082027 11 257 4.8 6.4 0.10 0.20 0.10 1 1013.9
20260505081719 11 279 3.2 6.4 0.08 0.18 0.08 1 1013.8
20260505081626 11 233 3.2 6.4 0.08 0.18 0.08 1 1013.9
20260505081622 11 246 3.2 6.4 0.08 0.18 0.08 1 1013.9
20260505081418 11 227 3.2 6.4 0.08 0.18 0.08 1 1013.9
20260505081315 11 228 4.8 6.4 0.08 0.18 0.08 1 1013.9
20260505081213 11 240 4.8 6.4 0.08 0.18 0.08 1 1013.9
20260505081110 11 264 3.2 6.4 0.08 0.18 0.08 1 1014.0
20260505081007 11 260 3.2 6.4 0.08 0.18 0.08 1 1013.9
20260505080907 11 225 3.2 6.4 0.08 0.18 0.08 1 1013.9
20260505080807 11 225 3.2 6.4 0.08 0.18 0.08 1 1014.0
20260505080707 11 221 3.2 6.4 0.08 0.18 0.08 1 1014.1
20260505080604 11 263 3.2 6.4 0.08 0.18 0.08 1 1014.1
20260505080501 11 238 3.2 6.4 0.05 0.15 0.08 1 1014.1
20260505080401 11 238 3.2 6.4 0.05 0.15 0.05 1 1014.1
20260505080301 11 242 3.2 6.4 0.05 0.15 0.05 1 1014.1
20260505080201 11 251 1.6 6.4 0.05 0.15 0.05 1 1014.1
20260505080055 11 242 3.2 6.4 0.05 0.15 0.05 1 1014.2
20260505075955 11 253 3.2 6.4 0.05 0.15 0.05 1 1014.2
20260505075855 11 259 3.2 8.0 0.03 0.13 0.03 1 1014.2
20260505075755 11 258 3.2 11.3 0.03 0.13 0.03 1 1014.2
20260505075655 11 258 4.8 11.3 0.03 0.13 0.03 1 1014.2
20260505075552 11 258 4.8 11.3 0.03 0.13 0.03 1 1014.1
20260505075449 11 258 4.8 11.3 0.03 0.13 0.03 1 1014.1
20260505075349 11 258 4.8 11.3 0.03 0.13 0.03 1 1014.1
20260505075249 11 260 4.8 11.3 0.03 0.13 0.03 1 1014.1
20260505075149 11 263 4.8 11.3 0.03 0.13 0.03 1 1014.0
20260505075048 11 271 6.4 11.3 0.03 0.13 0.03 1 1014.0
20260505074947 11 252 6.4 11.3 0.03 0.13 0.03 1 1014.0
20260505074845 11 289 6.4 11.3 0.03 0.13 0.03 1 1014.0
20260505074745 11 284 4.8 11.3 0.03 0.13 0.03 1 1013.9
20260505074643 11 231 4.8 11.3 0.03 0.13 0.03 1 1014.0
20260505074539 11 248 4.8 11.3 0.03 0.13 0.03 1 1014.0
20260505074439 11 238 4.8 11.3 0.03 0.13 0.03 1 1014.0
20260505074340 11 271 4.8 11.3 0.03 0.13 0.03 1 1014.0
20260505074240 11 271 4.8 9.7 0.03 0.13 0.03 1 1014.1
20260505074136 11 261 4.8 9.7 0.03 0.13 0.03 1 1014.0
20260505074033 11 244 4.8 9.7 0.03 0.13 0.03 1 1014.0
20260505073931 11 242 3.2 9.7 0.03 0.13 0.03 1 1014.0
20260505073832 11 254 3.2 9.7 0.03 0.13 0.03 1 1014.1
20260505073744 11 254 3.2 9.7 0.03 0.13 0.03 1 1014.1
20260505073740 11 257 3.2 9.7 0.03 0.13 0.03 1 1014.2
20260505073736 11 241 3.2 9.7 0.03 0.13 0.03 1 1014.1
20260505073425 11 247 3.2 6.4 0.05 0.13 0.03 1 1014.2
20260505073325 11 264 3.2 6.4 0.05 0.13 0.03 1 1014.2
20260505073225 11 264 3.2 6.4 0.05 0.13 0.03 1 1014.2
20260505073125 11 261 3.2 6.4 0.05 0.13 0.03 1 1014.3
20260505073036 11 242 3.2 6.4 0.03 0.10 0.00 1 1014.3
20260505073032 11 241 3.2 6.4 0.03 0.10 0.00 1 1014.4
20260505073028 11 261 3.2 6.4 0.03 0.10 0.00 1 1014.3
20260505072719 11 246 1.6 6.4 0.03 0.10 0.00 1 1014.4
20260505072621 11 246 1.6 6.4 0.03 0.10 0.00 1 1014.4
20260505072617 11 262 1.6 6.4 0.03 0.10 0.00 1 1014.4
20260505072414 11 262 1.6 6.4 0.03 0.10 0.00 1 1014.5
20260505072313 11 284 1.6 6.4 0.03 0.10 0.00 1 1014.5
20260505072213 11 284 1.6 6.4 0.03 0.10 0.00 1 1014.4
20260505072112 11 294 1.6 3.2 0.03 0.10 0.00 1 1014.4
20260505072010 11 294 1.6 3.2 0.03 0.10 0.00 1 1014.4
20260505071907 11 294 1.6 3.2 0.03 0.10 0.00 1 1014.4
20260505071808 11 294 1.6 3.2 0.03 0.10 0.00 1 1014.4
20260505071707 11 275 1.6 4.8 0.03 0.10 0.00 1 1014.4
20260505071607 11 274 1.6 4.8 0.03 0.10 0.00 1 1014.4
20260505071502 11 274 1.6 4.8 0.03 0.10 0.00 1 1014.4
20260505071401 11 274 1.6 4.8 0.03 0.10 0.00 1 1014.4
20260505071301 11 274 1.6 4.8 0.03 0.10 0.00 1 1014.3
20260505071201 11 274 1.6 4.8 0.03 0.10 0.00 1 1014.3
20260505071101 11 274 1.6 4.8 0.03 0.10 0.00 1 1014.3
20260505070955 11 274 3.2 4.8 0.03 0.10 0.00 1 1014.3
20260505070855 11 274 3.2 6.4 0.03 0.10 0.00 1 1014.3
20260505070755 11 274 3.2 6.4 0.03 0.10 0.00 1 1014.3
20260505070712 11 274 3.2 6.4 0.03 0.10 0.00 1 1014.2
20260505070708 11 273 3.2 6.4 0.03 0.10 0.00 1 1014.2
20260505070704 11 274 3.2 6.4 0.03 0.10 0.00 1 1014.2
20260505070353 11 293 3.2 9.7 0.03 0.10 0.00 1 1014.2
20260505070253 11 293 3.2 9.7 0.03 0.10 0.00 1 1014.2
20260505070151 11 267 3.2 9.7 0.03 0.10 0.00 1 1014.2
20260505070049 11 267 3.2 11.3 0.03 0.10 0.00 1 1014.2
20260505065945 11 276 4.8 11.3 0.03 0.10 0.10 1 1014.1
20260505065845 11 288 4.8 12.9 0.03 0.10 0.10 1 1014.2
20260505065744 11 285 4.8 12.9 0.03 0.10 0.10 1 1014.1
20260505065644 11 285 4.8 12.9 0.03 0.10 0.10 1 1014.1
20260505065544 11 285 4.8 12.9 0.03 0.10 0.10 1 1014.1
20260505065439 11 279 4.8 12.9 0.03 0.10 0.10 1 1014.1
20260505065338 11 286 4.8 12.9 0.03 0.10 0.10 1 1014.0
20260505065238 11 262 4.8 12.9 0.03 0.10 0.10 1 1014.0
20260505065147 11 279 6.4 12.9 0.03 0.10 0.10 1 1014.0
20260505065142 11 286 4.8 12.9 0.03 0.10 0.10 1 1014.0
20260505064933 11 281 4.8 12.9 0.03 0.10 0.10 1 1014.0
20260505064833 11 277 4.8 11.3 0.03 0.10 0.10 1 1013.9
20260505064732 11 304 4.8 11.3 0.03 0.10 0.10 1 1014.0
20260505064632 11 282 6.4 12.9 0.05 0.10 0.10 1 1013.9
20260505064532 11 284 6.4 12.9 0.05 0.10 0.10 1 1013.9
20260505064429 11 268 6.4 12.9 0.05 0.10 0.10 1 1013.9
20260505064327 11 271 6.4 12.9 0.05 0.10 0.10 1 1013.9
20260505064226 11 264 6.4 12.9 0.05 0.10 0.10 1 1013.8
20260505064126 11 282 6.4 12.9 0.05 0.10 0.10 1 1013.8
20260505064026 11 304 6.4 12.9 0.05 0.10 0.10 1 1013.8
20260505063920 11 275 6.4 12.9 0.05 0.10 0.10 1 1013.8
20260505063820 11 292 6.4 12.9 0.05 0.10 0.10 1 1013.8
20260505063720 11 267 6.4 14.5 0.05 0.10 0.10 1 1013.8
20260505063620 11 276 6.4 14.5 0.05 0.10 0.10 1 1013.8
20260505063520 11 267 8.0 14.5 0.05 0.10 0.10 1 1013.7
20260505063416 11 279 8.0 14.5 0.03 0.08 0.08 1 1013.7
20260505063315 11 280 8.0 14.5 0.03 0.08 0.08 1 1013.7
20260505063214 11 287 8.0 14.5 0.03 0.08 0.08 1 1013.7
20260505063114 11 284 8.0 14.5 0.03 0.08 0.08 1 1013.7
20260505063013 11 277 9.7 14.5 0.03 0.08 0.08 1 1013.7
20260505062912 11 275 8.0 14.5 0.03 0.08 0.08 1 1013.7
20260505062812 11 286 8.0 14.5 0.03 0.08 0.08 1 1013.7
20260505062712 11 276 8.0 14.5 0.03 0.08 0.08 1 1013.7
20260505062611 11 277 8.0 14.5 0.03 0.08 0.08 1 1013.8
20260505062507 11 286 8.0 14.5 0.03 0.08 0.08 1 1013.7
20260505062402 11 283 8.0 14.5 0.03 0.08 0.08 1 1013.8
20260505062304 11 286 8.0 12.9 0.03 0.08 0.08 1 1013.9
20260505062202 11 284 8.0 12.9 0.03 0.08 0.08 1 1013.8
20260505062102 11 277 8.0 12.9 0.03 0.08 0.08 1 1013.9
20260505062002 11 292 8.0 12.9 0.03 0.08 0.08 1 1013.9
20260505061856 11 279 8.0 14.5 0.03 0.08 0.08 1 1013.8
20260505061756 11 317 8.0 14.5 0.03 0.08 0.08 1 1013.9
20260505061656 11 279 8.0 14.5 0.03 0.08 0.08 1 1013.9
20260505061604 11 292 8.0 14.5 0.05 0.08 0.08 1 1013.9
20260505061600 11 280 8.0 14.5 0.03 0.08 0.08 1 1013.8
20260505061352 11 282 8.0 14.5 0.05 0.08 0.08 1 1013.9
20260505061250 11 278 8.0 14.5 0.05 0.08 0.08 1 1013.9
20260505061150 11 277 6.4 14.5 0.05 0.08 0.08 1 1013.9
20260505061050 11 281 6.4 14.5 0.05 0.08 0.08 1 1013.9
20260505060951 11 282 4.8 14.5 0.05 0.08 0.08 1 1013.9
20260505060845 11 290 4.8 11.3 0.05 0.08 0.08 1 1014.0
20260505060744 11 267 4.8 11.3 0.05 0.08 0.08 1 1013.9
20260505060644 11 278 4.8 11.3 0.05 0.08 0.08 1 1014.0
20260505060545 11 281 4.8 12.9 0.05 0.08 0.08 1 1014.0
20260505060444 11 275 4.8 12.9 0.05 0.08 0.08 1 1013.9
20260505060338 11 282 4.8 12.9 0.05 0.08 0.08 1 1013.9
20260505060238 11 290 4.8 12.9 0.05 0.08 0.08 1 1014.0
20260505060138 11 290 4.8 12.9 0.05 0.08 0.08 1 1014.0
20260505060038 11 275 4.8 12.9 0.05 0.08 0.08 1 1014.0
20260505055938 11 302 6.4 12.9 0.05 0.08 0.08 1 1014.0
20260505055832 11 281 6.4 12.9 0.05 0.08 0.08 1 1014.0
20260505055732 11 263 6.4 12.9 0.05 0.08 0.08 1 1014.0
20260505055632 11 273 6.4 12.9 0.05 0.08 0.08 1 1014.0
20260505055532 11 275 6.4 12.9 0.05 0.08 0.08 1 1014.0
20260505055431 11 303 6.4 12.9 0.05 0.08 0.08 1 1014.0
20260505055326 11 286 6.4 12.9 0.05 0.08 0.08 1 1014.1
20260505055226 11 292 6.4 12.9 0.05 0.08 0.08 1 1014.1
20260505055126 11 277 6.4 12.9 0.05 0.08 0.08 1 1014.1
20260505055027 11 290 6.4 12.9 0.05 0.08 0.08 1 1014.1
20260505054926 11 270 6.4 12.9 0.05 0.08 0.08 1 1014.1
20260505054820 11 296 6.4 12.9 0.05 0.08 0.08 1 1014.1
20260505054721 11 283 6.4 12.9 0.05 0.08 0.08 1 1014.1
20260505054620 11 307 6.4 12.9 0.03 0.05 0.05 1 1014.1
20260505054520 11 275 6.4 12.9 0.03 0.05 0.05 1 1014.0
20260505054420 11 304 6.4 12.9 0.03 0.05 0.05 1 1014.1
20260505054319 11 275 6.4 12.9 0.03 0.05 0.05 1 1014.1
20260505054219 11 284 8.0 14.5 0.03 0.05 0.05 1 1014.0
20260505054119 11 277 8.0 16.1 0.03 0.05 0.05 1 1014.0
20260505054023 11 294 8.0 16.1 0.03 0.05 0.05 1 1014.0
20260505054019 11 284 8.0 16.1 0.03 0.05 0.05 1 1014.0
20260505053807 11 312 6.4 16.1 0.03 0.05 0.05 1 1014.0
20260505053709 11 265 6.4 16.1 0.03 0.05 0.05 1 1013.9
20260505053609 11 275 8.0 16.1 0.03 0.05 0.05 1 1014.0
20260505053508 11 296 8.0 16.1 0.05 0.05 0.05 1 1014.0
20260505053408 11 288 8.0 17.7 0.05 0.05 0.05 1 1013.9
20260505053303 11 281 8.0 17.7 0.05 0.05 0.05 1 1013.9
20260505053211 11 285 6.4 17.7 0.05 0.05 0.05 1 1013.9
20260505053207 11 296 6.4 17.7 0.05 0.05 0.05 1 1013.9
20260505053002 11 288 8.0 17.7 0.05 0.05 0.05 1 1013.9
20260505052902 11 279 8.0 17.7 0.05 0.05 0.05 1 1013.9
20260505052759 11 265 8.0 17.7 0.05 0.05 0.05 1 1013.9
20260505052656 11 277 8.0 17.7 0.05 0.05 0.05 1 1013.9
20260505052556 11 288 8.0 17.7 0.05 0.05 0.05 1 1013.9
20260505052456 11 292 9.7 17.7 0.05 0.05 0.05 1 1013.8
20260505052356 11 259 8.0 14.5 0.05 0.05 0.05 1 1013.8
20260505052250 11 278 9.7 14.5 0.05 0.05 0.05 1 1013.9
20260505052150 11 285 9.7 14.5 0.05 0.05 0.05 1 1013.9
20260505052050 11 284 9.7 14.5 0.05 0.05 0.05 1 1013.9
20260505051959 11 267 9.7 16.1 0.05 0.05 0.05 1 1013.9
20260505051954 11 261 9.7 16.1 0.05 0.05 0.05 1 1013.9
20260505051756 11 321 9.7 16.1 0.05 0.05 0.05 1 1013.9
20260505051648 11 297 9.7 16.1 0.05 0.05 0.05 1 1013.9
20260505051444 11 271 9.7 16.1 0.03 0.03 0.05 1 1014.0
20260505051344 11 298 9.7 19.3 0.03 0.03 0.03 1 1014.0
20260505051238 11 294 9.7 19.3 0.03 0.03 0.03 1 1014.0
20260505051138 11 269 9.7 19.3 0.03 0.03 0.03 1 1014.0
20260505051038 11 275 9.7 19.3 0.03 0.03 0.03 1 1014.0
20260505050938 11 308 9.7 19.3 0.03 0.03 0.03 1 1014.0
20260505050838 11 276 9.7 19.3 0.03 0.03 0.03 1 1014.0
20260505050741 11 284 9.7 19.3 0.03 0.03 0.03 1 1014.1
20260505050737 11 279 9.7 19.3 0.03 0.03 0.03 1 1014.1
20260505050532 11 295 9.7 19.3 0.03 0.03 0.03 1 1014.1
20260505050432 11 263 9.7 19.3 0.03 0.03 0.03 1 1014.2
20260505050332 11 283 9.7 16.1 0.03 0.03 0.03 1 1014.2
20260505050226 11 278 9.7 16.1 0.03 0.03 0.03 1 1014.3
20260505050127 11 285 9.7 19.3 0.03 0.03 0.03 1 1014.3
20260505041750 12 288 9.7 20.9 0.00 0.00 0.00 1 1014.4
20260505041650 12 261 9.7 20.9 0.00 0.00 0.00 1 1014.4
20260505041550 12 274 11.3 20.9 0.00 0.00 0.00 1 1014.3
20260505041444 12 278 11.3 20.9 0.00 0.00 0.00 1 1014.3
20260505041259 12 303 11.3 19.3 0.00 0.00 0.00 1 1014.2
20260505041255 12 270 11.3 20.9 0.00 0.00 0.00 1 1014.2
20260505041146 12 276 11.3 19.3 0.00 0.00 0.00 1 1014.2
20260505040838 12 278 11.3 19.3 0.00 0.00 0.00 1 1014.1
20260505040738 12 281 11.3 19.3 0.00 0.00 0.00 1 1014.1
20260505040638 12 294 11.3 19.3 0.00 0.00 0.00 1 1014.0
20260505040538 12 306 9.7 19.3 0.00 0.00 0.00 1 1014.0
20260505040438 12 279 9.7 19.3 0.00 0.00 0.00 1 1014.0
20260505040338 12 278 9.7 19.3 0.00 0.00 0.00 1 1013.9
20260505040238 12 284 9.7 19.3 0.00 0.00 0.00 1 1013.9
20260505040138 12 267 9.7 19.3 0.00 0.00 0.00 1 1013.8
20260505040038 12 279 9.7 19.3 0.00 0.00 0.00 1 1013.8
20260505035938 12 311 9.7 19.3 0.00 0.00 0.00 1 1013.8
20260505035837 12 300 9.7 19.3 0.00 0.00 0.00 1 1013.8
20260505035738 12 294 9.7 19.3 0.00 0.00 0.00 1 1013.8
20260505035638 12 285 9.7 24.1 0.00 0.00 0.00 1 1013.8
20260505035538 12 279 11.3 24.1 0.00 0.00 0.00 1 1013.7
20260505035438 12 291 11.3 24.1 0.00 0.00 0.00 1 1013.7
20260505035338 12 275 11.3 24.1 0.00 0.00 0.00 1 1013.7
20260505035236 12 319 11.3 24.1 0.00 0.00 0.00 1 1013.6
20260505035136 12 298 12.9 24.1 0.00 0.00 0.00 1 1013.7
20260505035036 12 282 12.9 24.1 0.00 0.00 0.00 1 1013.6
20260505034944 12 287 14.5 24.1 0.00 0.00 0.00 1 1013.6
20260505034940 12 277 14.5 24.1 0.00 0.00 0.00 1 1013.6
20260505034735 12 275 14.5 24.1 0.00 0.00 0.00 1 1013.6
20260505034635 12 285 12.9 22.5 0.00 0.00 0.00 1 1013.6
20260505034536 12 281 12.9 22.5 0.00 0.00 0.00 1 1013.5
20260505034436 12 282 12.9 22.5 0.00 0.00 0.00 1 1013.5
20260505034336 12 271 12.9 22.5 0.00 0.00 0.00 1 1013.5
20260505034236 12 291 12.9 22.5 0.00 0.00 0.00 1 1013.5
20260505034135 12 336 12.9 22.5 0.00 0.00 0.00 1 1013.6
20260505034042 12 279 11.3 22.5 0.00 0.00 0.00 1 1013.5
20260505034037 12 288 12.9 22.5 0.00 0.00 0.00 1 1013.5
20260505033834 12 279 11.3 22.5 0.00 0.00 0.00 1 1013.6
20260505033734 12 276 12.9 22.5 0.00 0.00 0.00 1 1013.5
20260505033634 12 281 12.9 22.5 0.00 0.00 0.00 1 1013.6
20260505033534 12 288 12.9 22.5 0.00 0.00 0.00 1 1013.5
20260505033443 12 277 12.9 22.5 0.00 0.00 0.00 1 1013.5
20260505033438 12 271 12.9 22.5 0.00 0.00 0.00 1 1013.6
20260505033234 12 294 12.9 22.5 0.00 0.00 0.00 1 1013.5
20260505033134 12 285 12.9 22.5 0.00 0.00 0.00 1 1013.5
20260505033034 12 291 12.9 22.5 0.00 0.00 0.00 1 1013.5
20260505032933 12 281 12.9 22.5 0.00 0.00 0.00 1 1013.5
20260505032834 12 269 12.9 22.5 0.00 0.00 0.00 1 1013.5
20260505032734 12 279 12.9 22.5 0.00 0.00 0.00 1 1013.5
20260505032634 12 279 12.9 22.5 0.00 0.00 0.00 1 1013.5
20260505032542 12 288 12.9 22.5 0.00 0.00 0.00 1 1013.4
20260505032538 12 277 12.9 22.5 0.00 0.00 0.00 1 1013.5
20260505032334 12 281 12.9 19.3 0.00 0.00 0.00 1 1013.4
20260505032234 12 277 12.9 19.3 0.00 0.00 0.00 1 1013.4
20260505032130 12 263 12.9 19.3 0.00 0.00 0.00 1 1013.3
20260505032030 12 287 11.3 19.3 0.00 0.00 0.00 1 1013.4
20260505031930 12 279 12.9 19.3 0.00 0.00 0.00 1 1013.3
20260505031830 12 282 12.9 22.5 0.00 0.00 0.00 1 1013.3
20260505031729 12 279 12.9 22.5 0.00 0.00 0.00 1 1013.3
20260505031629 12 292 14.5 22.5 0.00 0.00 0.00 1 1013.3
20260505031530 12 277 14.5 24.1 0.00 0.00 0.00 1 1013.3
20260505031439 12 273 14.5 24.1 0.00 0.00 0.00 1 1013.3
20260505031435 12 312 14.5 24.1 0.00 0.00 0.00 1 1013.4
20260505031230 12 276 14.5 24.1 0.00 0.00 0.00 2 1013.4
20260505031130 12 285 16.1 24.1 0.00 0.00 0.00 2 1013.3
20260505031030 12 309 16.1 24.1 0.00 0.00 0.00 2 1013.3
20260505030938 12 306 14.5 24.1 0.00 0.00 0.00 3 1013.3
20260505030934 12 275 14.5 24.1 0.00 0.00 0.00 3 1013.3
20260505030731 12 315 14.5 24.1 0.00 0.00 0.00 2 1013.3
20260505030642 12 277 14.5 24.1 0.00 0.00 0.00 1 1013.3
20260505030535 12 293 14.5 25.7 0.00 0.00 0.00 1 1013.3
20260505030330 12 271 14.5 25.7 0.00 0.00 0.00 1 1013.3
20260505030224 12 275 12.9 25.7 0.00 0.00 0.00 1 1013.3
20260505030124 12 257 12.9 25.7 0.00 0.00 0.00 1 1013.3
20260505030032 12 276 12.9 25.7 0.00 0.00 0.00 1 1013.3
20260505030028 12 275 12.9 25.7 0.00 0.00 0.00 1 1013.3
20260505025824 12 286 12.9 25.7 0.00 0.00 0.00 1 1013.3
20260505025724 12 299 12.9 25.7 0.00 0.00 0.00 1 1013.3
20260505025624 12 258 12.9 25.7 0.00 0.00 0.00 1 1013.3
20260505025524 12 306 12.9 22.5 0.00 0.00 0.00 1 1013.3
20260505025424 12 284 12.9 22.5 0.00 0.00 0.00 1 1013.3
20260505025324 13 277 12.9 24.1 0.00 0.00 0.00 1 1013.4
20260505025224 13 266 12.9 24.1 0.00 0.00 0.00 1 1013.4
20260505025124 13 281 12.9 24.1 0.00 0.00 0.00 1 1013.3
20260505025020 13 275 12.9 24.1 0.00 0.00 0.00 1 1013.3
20260505024920 13 274 12.9 24.1 0.00 0.00 0.00 1 1013.4
20260505024828 13 292 12.9 24.1 0.00 0.00 0.00 1 1013.3
20260505024824 13 279 12.9 24.1 0.00 0.00 0.00 1 1013.3
20260505024633 13 284 12.9 24.1 0.00 0.00 0.00 1 1013.4
20260505024524 13 292 12.9 24.1 0.00 0.00 0.00 1 1013.4
20260505024320 13 275 11.3 20.9 0.00 0.00 0.00 1 1013.4
20260505024220 13 281 11.3 20.9 0.00 0.00 0.00 1 1013.4
20260505024128 13 279 11.3 20.9 0.00 0.00 0.00 1 1013.4
20260505024124 13 291 11.3 20.9 0.00 0.00 0.00 1 1013.4
20260505023919 13 279 11.3 20.9 0.00 0.00 0.00 1 1013.4
20260505023819 13 318 12.9 20.9 0.00 0.00 0.00 1 1013.4
20260505023719 13 290 12.9 20.9 0.00 0.00 0.00 1 1013.4
20260505023619 13 273 12.9 20.9 0.00 0.00 0.00 1 1013.4
20260505023520 13 284 12.9 20.9 0.00 0.00 0.00 1 1013.4
20260505023420 13 296 12.9 20.9 0.00 0.00 0.00 1 1013.4
20260505023320 13 274 12.9 20.9 0.00 0.00 0.00 1 1013.3
20260505023220 13 291 14.5 20.9 0.00 0.00 0.00 1 1013.4
20260505023116 13 265 14.5 20.9 0.00 0.00 0.00 1 1013.3
20260505023016 13 280 14.5 20.9 0.00 0.00 0.00 1 1013.3
20260505022916 13 282 14.5 20.9 0.00 0.00 0.00 1 1013.3
20260505022816 13 311 12.9 20.9 0.00 0.00 0.00 1 1013.3
20260505022715 13 260 14.5 20.9 0.00 0.00 0.00 1 1013.3
20260505022624 13 277 14.5 20.9 0.00 0.00 0.00 1 1013.3
20260505022620 13 281 14.5 20.9 0.00 0.00 0.00 1 1013.3
20260505022424 13 298 12.9 20.9 0.00 0.00 0.00 1 1013.3
20260505022420 13 278 14.5 20.9 0.00 0.00 0.00 1 1013.3
20260505022215 13 273 12.9 20.9 0.00 0.00 0.00 1 1013.3
20260505022116 13 300 12.9 20.9 0.00 0.00 0.00 1 1013.3
20260505022016 13 286 11.3 20.9 0.00 0.00 0.00 1 1013.2
20260505021916 13 238 11.3 20.9 0.00 0.00 0.00 1 1013.2
20260505021816 13 263 11.3 20.9 0.00 0.00 0.00 1 1013.2
20260505021715 13 303 11.3 20.9 0.00 0.00 0.00 1 1013.2
20260505021615 13 276 11.3 20.9 0.00 0.00 0.00 1 1013.2
20260505021515 13 272 11.3 20.9 0.00 0.00 0.00 1 1013.2
20260505021416 13 280 11.3 20.9 0.00 0.00 0.00 1 1013.2
20260505021316 13 265 9.7 19.3 0.00 0.00 0.00 1 1013.1
20260505021209 13 314 9.7 19.3 0.00 0.00 0.00 1 1013.1
20260505021109 13 327 11.3 19.3 0.00 0.00 0.00 1 1013.2
20260505021010 13 222 11.3 19.3 0.00 0.00 0.00 1 1013.2
20260505020919 13 284 11.3 20.9 0.00 0.00 0.00 1 1013.2
20260505020914 13 269 11.3 20.9 0.00 0.00 0.00 1 1013.2
20260505020710 13 282 12.9 24.1 0.00 0.00 0.00 1 1013.3
20260505020610 13 265 12.9 24.1 0.00 0.00 0.00 1 1013.3
20260505020509 13 265 12.9 24.1 0.00 0.00 0.00 1 1013.2
20260505020409 13 318 14.5 24.1 0.00 0.00 0.00 1 1013.3
20260505020309 13 279 14.5 25.7 0.00 0.00 0.00 1 1013.3
20260505020209 13 277 14.5 25.7 0.00 0.00 0.00 1 1013.4
20260505020109 13 306 14.5 25.7 0.00 0.00 0.00 1 1013.4
20260505020006 13 296 16.1 25.7 0.00 0.00 0.00 1 1013.4
20260505015905 13 300 16.1 25.7 0.00 0.00 0.00 1 1013.3
20260505015806 13 283 16.1 25.7 0.00 0.00 0.00 1 1013.3
20260505015706 13 275 16.1 25.7 0.00 0.00 0.00 1 1013.4
20260505015606 13 281 16.1 25.7 0.00 0.00 0.00 1 1013.4
20260505015506 13 264 16.1 25.7 0.00 0.00 0.00 1 1013.4
20260505015405 13 273 16.1 25.7 0.00 0.00 0.00 1 1013.4
20260505015303 13 292 16.1 25.7 0.00 0.00 0.00 1 1013.4
20260505015204 13 263 16.1 25.7 0.00 0.00 0.00 1 1013.4
20260505015104 13 267 16.1 25.7 0.00 0.00 0.00 1 1013.5
20260505015004 13 258 16.1 25.7 0.00 0.00 0.00 1 1013.5
20260505014904 13 288 16.1 25.7 0.00 0.00 0.00 1 1013.5
20260505014803 13 298 14.5 25.7 0.00 0.00 0.00 1 1013.6
20260505014703 13 310 14.5 25.7 0.00 0.00 0.00 1 1013.5
20260505014603 13 287 14.5 25.7 0.00 0.00 0.00 1 1013.6
20260505014503 13 286 14.5 25.7 0.00 0.00 0.00 1 1013.6
20260505014403 13 267 14.5 25.7 0.00 0.00 0.00 1 1013.6
20260505014258 13 292 14.5 24.1 0.00 0.00 0.00 1 1013.6
20260505014158 13 270 14.5 24.1 0.00 0.00 0.00 1 1013.6
20260505014109 13 282 12.9 24.1 0.00 0.00 0.00 1 1013.6
20260505014001 13 280 12.9 24.1 0.00 0.00 0.00 1 1013.6
20260505013752 13 279 14.5 24.1 0.00 0.00 0.00 1 1013.6
20260505013652 13 273 14.5 24.1 0.00 0.00 0.00 1 1013.6
20260505013550 13 274 12.9 24.1 0.00 0.00 0.00 1 1013.6
20260505013449 13 263 14.5 24.1 0.00 0.00 0.00 1 1013.6
20260505013349 13 286 14.5 24.1 0.00 0.00 0.00 1 1013.5
20260505013246 13 321 14.5 22.5 0.00 0.00 0.00 1 1013.5
20260505013208 13 282 12.9 22.5 0.00 0.00 0.00 1 1013.5
20260505013204 13 269 12.9 22.5 0.00 0.00 0.00 1 1013.5
20260505013159 13 311 11.3 22.5 0.00 0.00 0.00 1 1013.5
20260505013156 13 273 14.5 22.5 0.00 0.00 0.00 1 1013.5
20260505012746 13 343 11.3 19.3 0.00 0.00 0.00 1 1013.5
20260505012741 13 283 11.3 22.5 0.00 0.00 0.00 1 1013.5
20260505012537 13 271 11.3 22.5 0.00 0.00 0.00 1 1013.5
20260505012449 13 305 11.3 22.5 0.00 0.00 0.00 1 1013.5
20260505012445 13 263 11.3 22.5 0.00 0.00 0.00 1 1013.5
20260505012336 13 284 11.3 22.5 0.00 0.00 0.00 1 1013.5
20260505012145 13 304 11.3 22.5 0.00 0.00 0.00 1 1013.6
20260505012036 13 263 11.3 22.5 0.00 0.00 0.00 1 1013.6
20260505011831 13 288 12.9 22.5 0.00 0.00 0.00 1 1013.6
20260505011726 13 259 12.9 22.5 0.00 0.00 0.00 1 1013.6
20260505011626 13 282 11.3 19.3 0.00 0.00 0.00 1 1013.6
20260505011526 13 260 12.9 19.3 0.00 0.00 0.00 1 1013.6
20260505011426 13 283 12.9 19.3 0.00 0.00 0.00 1 1013.6
20260505011328 13 269 11.3 19.3 0.00 0.00 0.00 1 1013.6
20260505011324 13 279 11.3 19.3 0.00 0.00 0.00 1 1013.7
20260505011120 13 245 11.3 19.3 0.00 0.00 0.00 1 1013.7
20260505011020 13 271 11.3 19.3 0.00 0.00 0.00 1 1013.7
20260505010919 13 244 11.3 20.9 0.00 0.00 0.00 1 1013.7
20260505010819 13 271 11.3 20.9 0.00 0.00 0.00 1 1013.7
20260505010714 13 246 11.3 20.9 0.00 0.00 0.00 1 1013.7
20260505010614 13 273 11.3 20.9 0.00 0.00 0.00 1 1013.7
20260505010513 13 283 12.9 20.9 0.00 0.00 0.00 1 1013.6
20260505010414 13 256 12.9 20.9 0.00 0.00 0.00 1 1013.7
20260505010313 13 277 12.9 20.9 0.00 0.00 0.00 1 1013.7
20260505010207 13 291 12.9 20.9 0.00 0.00 0.00 1 1013.7
20260505010107 13 252 12.9 20.9 0.00 0.00 0.00 1 1013.7
20260505010020 13 254 12.9 19.3 0.00 0.00 0.00 1 1013.7
20260505005911 13 298 12.9 19.3 0.00 0.00 0.00 1 1013.7
20260505005702 13 295 12.9 20.9 0.00 0.00 0.00 1 1013.8
20260505005601 13 256 12.9 20.9 0.00 0.00 0.00 1 1013.8
20260505005501 13 272 12.9 20.9 0.00 0.00 0.00 1 1013.8
20260505005402 13 295 12.9 20.9 0.00 0.00 0.00 1 1013.8
20260505005301 13 292 12.9 20.9 0.00 0.00 0.00 1 1013.8
20260505005155 13 254 12.9 20.9 0.00 0.00 0.00 1 1013.8
20260505005055 13 250 12.9 20.9 0.00 0.00 0.00 1 1013.8
20260505004956 13 284 12.9 20.9 0.00 0.00 0.00 1 1013.8
20260505004903 13 296 12.9 20.9 0.00 0.00 0.00 1 1013.8
20260505004859 13 255 14.5 20.9 0.00 0.00 0.00 1 1013.8
20260505004648 13 269 12.9 20.9 0.00 0.00 0.00 1 1013.8
20260505004547 13 278 11.3 20.9 0.00 0.00 0.00 1 1013.8
20260505004448 13 286 11.3 20.9 0.00 0.00 0.00 1 1013.8
20260505004348 13 275 12.9 20.9 0.00 0.00 0.00 1 1013.8
20260505004247 13 279 12.9 20.9 0.00 0.00 0.00 1 1013.8
20260505004142 13 250 12.9 24.1 0.00 0.00 0.00 1 1013.9
20260505004042 13 279 11.3 24.1 0.00 0.00 0.00 1 1013.9
20260505003958 13 267 11.3 24.1 0.00 0.00 0.00 1 1014.0
20260505003953 13 226 11.3 24.1 0.00 0.00 0.00 1 1014.0
20260505003949 13 273 11.3 24.1 0.00 0.00 0.00 1 1013.9
20260505003646 13 265 12.9 24.1 0.00 0.00 0.00 1 1014.0
20260505003642 13 311 12.9 24.1 0.00 0.00 0.00 1 1013.9
20260505003437 13 221 12.9 24.1 0.00 0.00 0.00 1 1014.0
20260505003337 13 225 11.3 24.1 0.00 0.00 0.00 1 1013.9
20260505003237 13 223 11.3 24.1 0.00 0.00 0.00 1 1013.9
20260505003137 13 224 11.3 20.9 0.00 0.00 0.00 1 1013.9
20260505003051 13 257 11.3 20.9 0.00 0.00 0.00 1 1013.9
20260505002942 14 265 11.3 20.9 0.00 0.00 0.00 1 1014.0
20260505002737 13 280 11.3 20.9 0.00 0.00 0.00 1 1013.9
20260505002636 13 226 11.3 20.9 0.00 0.00 0.00 1 1013.9
20260505002536 14 245 9.7 20.9 0.00 0.00 0.00 1 1014.0
20260505002435 14 238 11.3 20.9 0.00 0.00 0.00 1 1013.9
20260505002335 14 251 11.3 20.9 0.00 0.00 0.00 1 1013.9
20260505002235 13 207 11.3 20.9 0.00 0.00 0.00 1 1014.0
20260505002135 13 246 12.9 20.9 0.00 0.00 0.00 1 1013.9
20260505002035 13 248 12.9 20.9 0.00 0.00 0.00 1 1013.9
20260505001929 13 216 12.9 20.9 0.00 0.00 0.00 1 1014.0
20260505001829 13 246 12.9 19.3 0.00 0.00 0.00 1 1014.0
20260505001729 13 258 12.9 19.3 0.00 0.00 0.00 1 1014.0
20260505001629 13 240 12.9 19.3 0.00 0.00 0.00 1 1014.1
20260505001529 13 255 12.9 19.3 0.00 0.00 0.00 1 1014.0
20260505001423 13 252 12.9 19.3 0.00 0.00 0.00 1 1014.1
20260505001323 13 227 12.9 19.3 0.00 0.00 0.00 1 1014.0
20260505001223 14 246 12.9 19.3 0.00 0.00 0.00 1 1014.0
20260505001123 14 247 12.9 22.5 0.00 0.00 0.00 1 1014.0
20260505001023 14 252 12.9 22.5 0.00 0.00 0.00 1 1014.0
20260505000917 14 244 12.9 22.5 0.00 0.00 0.00 1 1014.1
20260505000818 14 262 14.5 22.5 0.00 0.00 0.00 1 1014.1
20260505000718 14 248 12.9 25.7 0.00 0.00 0.00 1 1014.0
20260505000617 14 251 14.5 25.7 0.00 0.00 0.00 1 1014.0
20260505000517 14 239 14.5 25.7 0.00 0.00 0.00 1 1014.0
20260505000413 14 257 14.5 25.7 0.00 0.00 0.00 1 1014.0
20260505000311 14 273 14.5 25.7 0.00 0.00 0.00 1 1013.9
20260505000212 14 240 14.5 25.7 0.00 0.00 0.00 1 1013.9
20260505000111 14 249 14.5 25.7 0.00 0.00 0.00 1 1013.9
20260505000011 14 265 14.5 25.7 0.00 0.00 0.00 1 1014.0
20260504235905 14 232 12.9 25.7 0.00 0.00 0.00 1 1014.0
20260504235806 14 242 12.9 22.5 0.00 0.00 0.00 1 1013.9
20260504235705 14 213 12.9 22.5 0.00 0.00 0.00 1 1014.0
20260504235605 14 228 12.9 22.5 0.00 0.00 0.00 1 1014.0
20260504235505 14 229 12.9 22.5 0.00 0.00 0.00 1 1014.0
20260504235359 14 237 12.9 22.5 0.00 0.00 0.00 1 1014.0
20260504235307 14 291 12.9 22.5 0.00 0.00 0.00 1 1013.9
20260504235304 14 294 12.9 22.5 0.00 0.00 0.00 1 1014.0
20260504235107 14 290 14.5 25.7 0.00 0.00 0.00 1 1013.9
20260504235103 14 232 14.5 22.5 0.00 0.00 0.00 1 1013.9
20260504234853 14 254 14.5 25.7 0.00 0.00 0.00 1 1013.9
20260504234753 14 262 14.5 25.7 0.00 0.00 0.00 1 1013.9
20260504234653 14 251 14.5 25.7 0.00 0.00 0.00 1 1013.9
20260504234554 14 265 14.5 25.7 0.00 0.00 0.00 1 1013.9
20260504234453 14 228 12.9 25.7 0.00 0.00 0.00 1 1013.9
20260504234347 14 242 14.5 25.7 0.00 0.00 0.00 1 1013.9
20260504234247 14 204 12.9 25.7 0.00 0.00 0.00 1 1014.0
20260504234147 14 272 12.9 25.7 0.00 0.00 0.00 1 1013.9
20260504234047 14 284 12.9 25.7 0.00 0.00 0.00 1 1013.9
20260504233947 14 278 14.5 22.5 0.00 0.00 0.00 1 1013.9
20260504233841 14 263 14.5 25.7 0.00 0.00 0.00 1 1013.8
20260504233750 14 229 14.5 25.7 0.00 0.00 0.00 1 1013.8
20260504233745 14 239 14.5 25.7 0.00 0.00 0.00 1 1013.8
20260504233541 14 224 14.5 25.7 0.00 0.00 0.00 1 1013.8
20260504233441 14 241 14.5 25.7 0.00 0.00 0.00 1 1013.8
20260504233335 13 277 14.5 25.7 0.00 0.00 0.00 1 1013.8
20260504233244 14 252 12.9 25.7 0.00 0.00 0.00 1 1013.9
20260504233239 13 282 14.5 25.7 0.00 0.00 0.00 1 1013.8
20260504233035 14 226 12.9 25.7 0.00 0.00 0.00 1 1013.9
20260504232935 14 233 12.9 25.7 0.00 0.00 0.00 1 1013.9
20260504232830 14 224 12.9 20.9 0.00 0.00 0.00 1 1013.8
20260504232746 14 261 12.9 20.9 0.00 0.00 0.00 1 1013.9
20260504232742 14 243 12.9 20.9 0.00 0.00 0.00 1 1013.8
20260504232738 14 233 12.9 20.9 0.00 0.00 0.00 1 1013.8
20260504232432 14 234 12.9 20.9 0.00 0.00 0.00 1 1013.9
20260504232427 14 250 12.9 24.1 0.00 0.00 0.00 1 1013.9
20260504232224 14 241 12.9 24.1 0.00 0.00 0.00 1 1013.9
20260504232124 14 290 14.5 24.1 0.00 0.00 0.00 1 1013.9
20260504232024 14 276 14.5 24.1 0.00 0.00 0.00 1 1013.8
20260504231923 13 219 14.5 24.1 0.00 0.00 0.00 1 1013.9
20260504231818 13 253 14.5 24.1 0.00 0.00 0.00 1 1013.9
20260504231718 13 267 14.5 24.1 0.00 0.00 0.00 1 1013.9
20260504231617 13 244 14.5 24.1 0.00 0.00 0.00 1 1013.9
20260504231526 13 247 14.5 24.1 0.00 0.00 0.00 1 1013.9
20260504231522 13 237 14.5 24.1 0.00 0.00 0.00 1 1013.9
20260504231323 14 252 16.1 27.4 0.00 0.00 0.00 1 1013.9
20260504231215 14 240 16.1 27.4 0.00 0.00 0.00 1 1013.9
20260504231012 14 281 16.1 27.4 0.00 0.00 0.00 1 1013.9
20260504230910 14 216 14.5 27.4 0.00 0.00 0.00 1 1013.9
20260504230807 14 231 14.5 27.4 0.00 0.00 0.00 1 1013.9
20260504230706 14 253 14.5 27.4 0.00 0.00 0.00 1 1013.9
20260504230606 14 223 12.9 27.4 0.00 0.00 0.00 1 1013.9
20260504230505 14 0 12.9 27.4 0.00 0.00 0.00 1 1013.9
20260504230405 14 231 12.9 27.4 0.00 0.00 0.00 1 1013.9
20260504230300 14 232 12.9 25.7 0.00 0.00 0.00 1 1013.9
20260504230159 14 209 12.9 22.5 0.00 0.00 0.00 1 1013.9
20260504230059 14 249 12.9 22.5 0.00 0.00 0.00 1 1013.9
20260504225959 14 231 12.9 22.5 0.00 0.00 0.00 1 1013.9
20260504225859 14 277 12.9 22.5 0.00 0.00 0.00 1 1013.9
20260504225753 14 281 12.9 22.5 0.00 0.00 0.00 1 1013.9
20260504225653 14 249 12.9 22.5 0.00 0.00 0.00 1 1014.0
20260504225601 14 263 14.5 19.3 0.00 0.00 0.00 1 1014.0
20260504225557 14 238 14.5 22.5 0.00 0.00 0.00 1 1014.0
20260504225353 14 242 14.5 19.3 0.00 0.00 0.00 1 1014.0
20260504225247 14 237 14.5 19.3 0.00 0.00 0.00 1 1014.0
20260504225147 14 249 12.9 19.3 0.00 0.00 0.00 1 1014.0
20260504225047 14 259 12.9 19.3 0.00 0.00 0.00 1 1014.0
20260504224947 14 245 12.9 19.3 0.00 0.00 0.00 1 1014.1
20260504224847 14 315 14.5 24.1 0.00 0.00 0.00 1 1014.1
20260504224741 14 236 14.5 24.1 0.00 0.00 0.00 1 1014.1
20260504224641 14 240 14.5 24.1 0.00 0.00 0.00 1 1014.0
20260504224541 14 229 12.9 24.1 0.00 0.00 0.00 1 1014.1
20260504224441 14 246 14.5 24.1 0.00 0.00 0.00 1 1014.1
20260504224341 14 222 14.5 24.1 0.00 0.00 0.00 1 1014.1
20260504224235 14 255 12.9 24.1 0.00 0.00 0.00 1 1014.1
20260504224135 14 244 12.9 24.1 0.00 0.00 0.00 1 1014.1
20260504224035 14 244 12.9 24.1 0.00 0.00 0.00 1 1014.1
20260504223936 14 226 12.9 24.1 0.00 0.00 0.00 1 1014.1
20260504223834 14 241 12.9 22.5 0.00 0.00 0.00 1 1014.1
20260504223729 14 213 12.9 22.5 0.00 0.00 0.00 1 1014.1
20260504223629 14 233 12.9 22.5 0.00 0.00 0.00 1 1014.0
20260504223530 14 246 12.9 22.5 0.00 0.00 0.00 1 1014.0
20260504223429 14 229 12.9 22.5 0.00 0.00 0.00 1 1014.0
20260504223328 14 263 12.9 22.5 0.00 0.00 0.00 1 1014.0
20260504223223 14 248 14.5 22.5 0.00 0.00 0.00 1 1014.0
20260504223124 14 271 12.9 22.5 0.00 0.00 0.00 1 1014.1
20260504223023 14 262 12.9 22.5 0.00 0.00 0.00 1 1014.1
20260504222923 14 261 12.9 22.5 0.00 0.00 0.00 1 1014.1
20260504222823 14 248 12.9 22.5 0.00 0.00 0.00 1 1014.1
20260504222717 14 225 14.5 22.5 0.00 0.00 0.00 1 1014.1
20260504222638 15 286 14.5 22.5 0.00 0.00 0.00 1 1014.1
20260504222634 14 228 14.5 22.5 0.00 0.00 0.00 1 1014.1
20260504222421 15 249 14.5 22.5 0.00 0.00 0.00 1 1014.1
20260504222211 15 278 12.9 22.5 0.00 0.00 0.00 1 1014.0
20260504222111 15 249 12.9 22.5 0.00 0.00 0.00 1 1014.0
20260504222011 15 220 12.9 22.5 0.00 0.00 0.00 1 1014.0
20260504221911 15 218 14.5 22.5 0.00 0.00 0.00 1 1014.0
20260504221812 15 248 14.5 22.5 0.00 0.00 0.00 1 1014.0
20260504221714 15 273 14.5 22.5 0.00 0.00 0.00 1 1014.1
20260504221709 15 240 14.5 22.5 0.00 0.00 0.00 1 1014.1
20260504221505 15 238 12.9 22.5 0.00 0.00 0.00 1 1014.1
20260504221405 15 252 12.9 22.5 0.00 0.00 0.00 1 1014.2
20260504221305 15 264 12.9 20.9 0.00 0.00 0.00 1 1014.2
20260504221159 15 276 12.9 20.9 0.00 0.00 0.00 1 1014.2
20260504221059 15 256 12.9 22.5 0.00 0.00 0.00 1 1014.2
20260504221025 15 253 12.9 22.5 0.00 0.00 0.00 1 1014.2
20260504221021 15 254 12.9 22.5 0.00 0.00 0.00 1 1014.2
20260504221016 15 274 12.9 22.5 0.00 0.00 0.00 1 1014.2
20260504220908 15 229 12.9 22.5 0.00 0.00 0.00 1 1014.2
20260504220455 15 242 12.9 22.5 0.00 0.00 0.00 1 1014.2
20260504220356 15 229 12.9 22.5 0.00 0.00 0.00 1 1014.2
20260504220252 14 269 14.5 22.5 0.00 0.00 0.00 1 1014.2
20260504220208 14 260 14.5 20.9 0.00 0.00 0.00 1 1014.2
20260504220100 14 277 14.5 22.5 0.00 0.00 0.00 1 1014.2
20260504220056 14 243 14.5 22.5 0.00 0.00 0.00 1 1014.2
20260504215747 14 217 14.5 22.5 0.00 0.00 0.00 1 1014.2
20260504215642 14 264 12.9 22.5 0.00 0.00 0.00 1 1014.3
20260504215541 14 254 12.9 22.5 0.00 0.00 0.00 1 1014.2
20260504215441 14 257 12.9 22.5 0.00 0.00 0.00 1 1014.2
20260504215341 14 236 12.9 22.5 0.00 0.00 0.00 1 1014.2
20260504215241 14 285 12.9 22.5 0.00 0.00 0.00 2 1014.2
20260504215144 15 227 12.9 20.9 0.00 0.00 0.00 1 1014.2
20260504215140 15 240 12.9 22.5 0.00 0.00 0.00 1 1014.2
20260504214935 15 253 12.9 22.5 0.00 0.00 0.00 1 1014.2
20260504214835 15 224 12.9 22.5 0.00 0.00 0.00 1 1014.2
20260504214734 15 222 12.9 22.5 0.00 0.00 0.00 1 1014.2
20260504214629 14 315 12.9 22.5 0.00 0.00 0.00 1 1014.2
20260504214529 14 219 12.9 22.5 0.00 0.00 0.00 1 1014.3
20260504214429 15 269 14.5 22.5 0.00 0.00 0.00 1 1014.2
20260504214329 15 294 12.9 22.5 0.00 0.00 0.00 1 1014.2
20260504214229 15 239 12.9 22.5 0.00 0.00 0.00 1 1014.2
20260504214123 15 256 12.9 22.5 0.00 0.00 0.00 1 1014.2
20260504214022 15 273 12.9 22.5 0.00 0.00 0.00 1 1014.2
20260504213923 15 257 12.9 20.9 0.00 0.00 0.00 1 1014.2
20260504213823 14 268 14.5 22.5 0.00 0.00 0.00 1 1014.2
20260504213723 14 249 12.9 22.5 0.00 0.00 0.00 1 1014.1
20260504213617 14 278 12.9 22.5 0.00 0.00 0.00 1 1014.2
20260504213517 14 253 12.9 22.5 0.00 0.00 0.00 1 1014.2
20260504213417 14 217 12.9 22.5 0.00 0.00 0.00 1 1014.2
20260504213317 14 269 12.9 22.5 0.00 0.00 0.00 1 1014.2
20260504213217 14 187 12.9 22.5 0.00 0.00 0.00 1 1014.2
20260504213113 14 246 12.9 22.5 0.00 0.00 0.00 4 1014.2
20260504213011 14 209 12.9 22.5 0.00 0.00 0.00 6 1014.2
20260504212911 15 230 12.9 22.5 0.00 0.00 0.00 6 1014.1
20260504212811 15 243 12.9 22.5 0.00 0.00 0.00 1 1014.2
20260504212713 15 286 12.9 22.5 0.00 0.00 0.00 4 1014.2
20260504212709 15 250 12.9 22.5 0.00 0.00 0.00 5 1014.2
20260504212505 15 247 12.9 22.5 0.00 0.00 0.00 9 1014.2
20260504212405 15 257 12.9 22.5 0.00 0.00 0.00 11 1014.2
20260504212304 15 250 12.9 22.5 0.00 0.00 0.00 9 1014.2
20260504212203 15 205 12.9 22.5 0.00 0.00 0.00 6 1014.2
20260504212101 15 261 12.9 22.5 0.00 0.00 0.00 4 1014.2
20260504212001 15 245 12.9 22.5 0.00 0.00 0.00 6 1014.2
20260504211901 15 233 12.9 20.9 0.00 0.00 0.00 6 1014.2
20260504211801 15 255 12.9 20.9 0.00 0.00 0.00 6 1014.2
20260504211701 15 244 12.9 22.5 0.00 0.00 0.00 7 1014.2
20260504211609 15 228 14.5 22.5 0.00 0.00 0.00 10 1014.2
20260504211605 15 259 14.5 22.5 0.00 0.00 0.00 10 1014.2
20260504211401 15 259 14.5 22.5 0.00 0.00 0.00 11 1014.3
20260504211300 15 236 12.9 22.5 0.00 0.00 0.00 10 1014.2
20260504211201 15 254 14.5 22.5 0.00 0.00 0.00 9 1014.2
20260504211101 15 256 14.5 22.5 0.00 0.00 0.00 6 1014.2
20260504211001 15 257 12.9 22.5 0.00 0.00 0.00 6 1014.2
20260504210909 15 267 12.9 22.5 0.00 0.00 0.00 15 1014.3
20260504210905 15 233 12.9 22.5 0.00 0.00 0.00 12 1014.3
20260504210701 15 223 12.9 22.5 0.00 0.00 0.00 15 1014.3
20260504210601 15 232 12.9 22.5 0.00 0.00 0.00 14 1014.3
20260504210501 15 256 12.9 22.5 0.00 0.00 0.00 11 1014.3
20260504210355 15 237 12.9 22.5 0.00 0.00 0.00 9 1014.3
20260504210256 15 257 12.9 22.5 0.00 0.00 0.00 7 1014.4
20260504210154 15 246 12.9 22.5 0.00 0.00 0.00 9 1014.4
20260504210055 15 214 12.9 22.5 0.00 0.00 0.00 10 1014.4
20260504205954 15 296 12.9 22.5 0.00 0.00 0.00 11 1014.4
20260504205849 15 272 14.5 22.5 0.00 0.00 0.00 14 1014.4
20260504205806 15 256 14.5 22.5 0.00 0.00 0.00 17 1014.4
20260504205802 15 279 12.9 22.5 0.00 0.00 0.00 15 1014.4
20260504205757 15 242 14.5 22.5 0.00 0.00 0.00 13 1014.4
20260504205448 15 250 12.9 22.5 0.00 0.00 0.00 16 1014.4
20260504205347 15 244 12.9 22.5 0.00 0.00 0.00 15 1014.4
20260504205247 15 242 12.9 20.9 0.00 0.00 0.00 19 1014.4
20260504205147 15 302 12.9 20.9 0.00 0.00 0.00 21 1014.4
20260504205047 15 229 11.3 20.9 0.00 0.00 0.00 24 1014.4
20260504204947 15 263 12.9 22.5 0.00 0.00 0.00 23 1014.4
20260504204855 15 243 11.3 22.5 0.00 0.00 0.00 21 1014.3
20260504204851 15 271 11.3 22.5 0.00 0.00 0.00 22 1014.3
20260504204655 15 200 11.3 22.5 0.00 0.00 0.00 19 1014.3
20260504204651 15 214 11.3 22.5 0.00 0.00 0.00 19 1014.3
20260504204456 15 257 11.3 22.5 0.00 0.00 0.00 18 1014.3
20260504204452 15 217 11.3 22.5 0.00 0.00 0.00 19 1014.3
20260504204246 15 261 12.9 22.5 0.00 0.00 0.00 19 1014.4
20260504204146 15 279 12.9 22.5 0.00 0.00 0.00 18 1014.3
20260504204047 15 243 12.9 22.5 0.00 0.00 0.00 18 1014.4
20260504203947 15 269 12.9 22.5 0.00 0.00 0.00 20 1014.4
20260504203847 15 271 12.9 22.5 0.00 0.00 0.00 23 1014.4
20260504203748 15 253 11.3 22.5 0.00 0.00 0.00 25 1014.4
20260504203644 15 219 11.3 22.5 0.00 0.00 0.00 25 1014.4
20260504203545 15 284 11.3 22.5 0.00 0.00 0.00 28 1014.3
20260504203445 15 256 11.3 22.5 0.00 0.00 0.00 29 1014.3
20260504203345 15 240 11.3 22.5 0.00 0.00 0.00 30 1014.3
20260504203245 15 225 9.7 22.5 0.00 0.00 0.00 30 1014.3
20260504203145 15 276 9.7 22.5 0.00 0.00 0.00 34 1014.3
20260504203044 15 279 9.7 22.5 0.00 0.00 0.00 33 1014.3
20260504202944 15 228 9.7 19.3 0.00 0.00 0.00 34 1014.4
20260504202846 15 290 9.7 19.3 0.00 0.00 0.00 31 1014.3
20260504202744 15 274 9.7 19.3 0.00 0.00 0.00 33 1014.3
20260504202644 15 259 9.7 19.3 0.00 0.00 0.00 29 1014.3
20260504202545 15 350 11.3 19.3 0.00 0.00 0.00 26 1014.2
20260504202439 15 249 11.3 22.5 0.00 0.00 0.00 25 1014.3
20260504202355 15 284 12.9 24.1 0.00 0.00 0.00 29 1014.1
20260504202351 15 254 14.5 24.1 0.00 0.00 0.00 28 1014.1
20260504202347 15 226 12.9 24.1 0.00 0.00 0.00 29 1014.2
20260504202039 15 236 14.5 24.1 0.00 0.00 0.00 30 1014.2
20260504201947 15 279 14.5 24.1 0.00 0.00 0.00 33 1014.2
20260504201943 15 232 14.5 24.1 0.00 0.00 0.00 29 1014.1
20260504201739 15 261 14.5 24.1 0.00 0.00 0.00 34 1014.2
20260504201638 15 269 14.5 24.1 0.00 0.00 0.00 34 1014.2
20260504201540 15 287 14.5 24.1 0.00 0.00 0.00 37 1014.2
20260504201439 15 238 12.9 24.1 0.00 0.00 0.00 34 1014.2
20260504201339 15 240 12.9 24.1 0.00 0.00 0.00 36 1014.2
20260504201239 15 289 12.9 24.1 0.00 0.00 0.00 31 1014.2
20260504201138 15 234 12.9 24.1 0.00 0.00 0.00 28 1014.2
20260504201039 15 257 12.9 24.1 0.00 0.00 0.00 24 1014.3
20260504200946 15 261 12.9 24.1 0.00 0.00 0.00 26 1014.3
20260504200942 15 218 12.9 24.1 0.00 0.00 0.00 26 1014.3
20260504200748 15 214 14.5 20.9 0.00 0.00 0.00 20 1014.3
20260504200744 15 249 12.9 24.1 0.00 0.00 0.00 19 1014.3
20260504200539 15 255 14.5 20.9 0.00 0.00 0.00 24 1014.3
20260504200439 15 269 14.5 20.9 0.00 0.00 0.00 24 1014.3
20260504200339 15 264 14.5 20.9 0.00 0.00 0.00 21 1014.3
20260504200238 15 237 14.5 22.5 0.00 0.00 0.00 20 1014.3
20260504200139 15 242 14.5 22.5 0.00 0.00 0.00 16 1014.3
20260504200037 15 248 14.5 24.1 0.00 0.00 0.00 19 1014.4
20260504195937 15 252 14.5 24.1 0.00 0.00 0.00 19 1014.3
20260504195837 15 292 14.5 25.7 0.00 0.00 0.00 21 1014.3
20260504195737 15 221 14.5 25.7 0.00 0.00 0.00 18 1014.3
20260504195637 15 265 16.1 25.7 0.00 0.00 0.00 1 1014.3
20260504195537 15 281 16.1 25.7 0.00 0.00 0.00 1 1014.3
20260504195437 15 236 16.1 25.7 0.00 0.00 0.00 7 1014.3
20260504195337 15 222 16.1 25.7 0.00 0.00 0.00 5 1014.3
20260504195237 15 252 16.1 25.7 0.00 0.00 0.00 1 1014.3
20260504195149 15 217 16.1 25.7 0.00 0.00 0.00 1 1014.3
20260504195041 15 234 16.1 25.7 0.00 0.00 0.00 1 1014.3
20260504194845 15 232 16.1 24.1 0.00 0.00 0.00 2 1014.4
20260504194841 15 249 16.1 24.1 0.00 0.00 0.00 1 1014.4
20260504194636 14 321 16.1 24.1 0.00 0.00 0.00 4 1014.4
20260504194537 14 242 16.1 24.1 0.00 0.00 0.00 3 1014.5
20260504194437 14 285 16.1 24.1 0.00 0.00 0.00 3 1014.4
20260504194337 14 239 16.1 24.1 0.00 0.00 0.00 1 1014.5
20260504194237 15 263 16.1 22.5 0.00 0.00 0.00 1 1014.5
20260504194132 14 247 16.1 22.5 0.00 0.00 0.00 1 1014.5
20260504194032 14 281 14.5 22.5 0.00 0.00 0.00 1 1014.5
20260504193933 14 247 14.5 22.5 0.00 0.00 0.00 1 1014.5
20260504193833 14 275 14.5 22.5 0.00 0.00 0.00 1 1014.5
20260504193733 14 235 16.1 22.5 0.00 0.00 0.00 1 1014.4
20260504193633 14 237 16.1 24.1 0.00 0.00 0.00 1 1014.4
20260504193532 14 227 16.1 24.1 0.00 0.00 0.00 1 1014.4
20260504193432 14 229 16.1 24.1 0.00 0.00 0.00 1 1014.4
20260504193333 14 265 16.1 24.1 0.00 0.00 0.00 1 1014.3
20260504193233 14 225 16.1 24.1 0.00 0.00 0.00 1 1014.3
20260504193133 14 231 16.1 24.1 0.00 0.00 0.00 1 1014.3
20260504193033 14 257 16.1 24.1 0.00 0.00 0.00 1 1014.3
20260504192932 14 237 17.7 24.1 0.00 0.00 0.00 1 1014.3
20260504192833 14 240 17.7 24.1 0.00 0.00 0.00 1 1014.3
20260504192742 14 215 17.7 25.7 0.00 0.00 0.00 1 1014.3
20260504192737 14 219 17.7 25.7 0.00 0.00 0.00 1 1014.3
20260504192542 14 217 17.7 25.7 0.00 0.00 0.00 1 1014.3
20260504192538 14 256 17.7 25.7 0.00 0.00 0.00 1 1014.3
20260504192338 14 264 17.7 25.7 0.00 0.00 0.00 1 1014.4
20260504192333 14 249 17.7 25.7 0.00 0.00 0.00 1 1014.4
20260504192129 14 269 17.7 25.7 0.00 0.00 0.00 1 1014.4
20260504192029 14 264 17.7 25.7 0.00 0.00 0.00 1 1014.4
20260504191929 14 223 17.7 27.4 0.00 0.00 0.00 1 1014.5
20260504191829 14 254 17.7 27.4 0.00 0.00 0.00 1 1014.5
20260504191729 14 236 17.7 27.4 0.00 0.00 0.00 1 1014.5
20260504191629 14 248 17.7 27.4 0.00 0.00 0.00 1 1014.5
20260504191528 14 255 17.7 27.4 0.00 0.00 0.00 1 1014.5
20260504191428 14 246 17.7 27.4 0.00 0.00 0.00 1 1014.5
20260504191328 14 230 17.7 27.4 0.00 0.00 0.00 1 1014.5
20260504191229 14 246 17.7 27.4 0.00 0.00 0.00 1 1014.5
20260504191129 14 246 17.7 27.4 0.00 0.00 0.00 1 1014.5
20260504191029 14 282 17.7 27.4 0.00 0.00 0.00 1 1014.5
20260504190928 14 225 17.7 25.7 0.00 0.00 0.00 1 1014.5
20260504190828 14 263 16.1 25.7 0.00 0.00 0.00 1 1014.6
20260504190728 14 233 16.1 24.1 0.00 0.00 0.00 1 1014.5
20260504190629 14 224 16.1 24.1 0.00 0.00 0.00 1 1014.6
20260504190529 14 240 16.1 24.1 0.00 0.00 0.00 1 1014.6
20260504190429 14 236 16.1 24.1 0.00 0.00 0.00 1 1014.6
20260504190324 14 252 16.1 24.1 0.00 0.00 0.00 1 1014.5
20260504190225 14 292 16.1 24.1 0.00 0.00 0.00 1 1014.5
20260504190125 14 226 16.1 24.1 0.00 0.00 0.00 1 1014.6
20260504190024 14 257 16.1 24.1 0.00 0.00 0.00 1 1014.5
20260504185925 14 253 16.1 24.1 0.00 0.00 0.00 1 1014.5
20260504185824 14 242 16.1 24.1 0.00 0.00 0.00 1 1014.5
20260504185725 14 236 14.5 24.1 0.00 0.00 0.00 1 1014.5
20260504185625 14 227 14.5 22.5 0.00 0.00 0.00 1 1014.5
20260504185525 14 240 12.9 22.5 0.00 0.00 0.00 1 1014.5
20260504185424 14 229 12.9 22.5 0.00 0.00 0.00 1 1014.5
20260504185324 14 231 12.9 22.5 0.00 0.00 0.00 1 1014.5
20260504185224 14 256 12.9 22.5 0.00 0.00 0.00 1 1014.5
20260504185119 15 253 12.9 24.1 0.00 0.00 0.00 1 1014.6
20260504185018 15 225 12.9 24.1 0.00 0.00 0.00 1 1014.6
20260504184919 15 234 12.9 24.1 0.00 0.00 0.00 1 1014.6
20260504184819 15 230 14.5 24.1 0.00 0.00 0.00 1 1014.6
20260504184718 15 257 14.5 24.1 0.00 0.00 0.00 1 1014.5
20260504184611 15 239 14.5 24.1 0.00 0.00 0.00 1 1014.6
20260504184511 14 259 14.5 24.1 0.00 0.00 0.00 1 1014.5
20260504184410 14 264 14.5 24.1 0.00 0.00 0.00 1 1014.5
20260504184310 14 228 14.5 24.1 0.00 0.00 0.00 1 1014.6
20260504184210 14 228 14.5 24.1 0.00 0.00 0.00 1 1014.5
20260504184104 14 239 14.5 24.1 0.00 0.00 0.00 1 1014.6
20260504184004 14 262 14.5 24.1 0.00 0.00 0.00 1 1014.6
20260504183905 14 265 14.5 25.7 0.00 0.00 0.00 1 1014.6
20260504183805 14 239 14.5 25.7 0.00 0.00 0.00 1 1014.5
20260504183705 14 246 14.5 25.7 0.00 0.00 0.00 1 1014.6
20260504183603 14 246 14.5 25.7 0.00 0.00 0.00 1 1014.6
20260504183503 15 232 14.5 25.7 0.00 0.00 0.00 1 1014.4
20260504183403 15 227 14.5 25.7 0.00 0.00 0.00 1 1014.5
20260504183301 15 278 16.1 25.7 0.00 0.00 0.00 1 1014.5
20260504183200 15 264 14.5 25.7 0.00 0.00 0.00 1 1014.5
20260504183100 15 291 14.5 25.7 0.00 0.00 0.00 1 1014.4
20260504182959 15 271 14.5 25.7 0.00 0.00 0.00 1 1014.4
20260504182859 15 252 14.5 24.1 0.00 0.00 0.00 1 1014.4
20260504182759 15 200 14.5 24.1 0.00 0.00 0.00 1 1014.4
20260504182659 15 249 14.5 24.1 0.00 0.00 0.00 1 1014.4
20260504182559 15 257 14.5 24.1 0.00 0.00 0.00 1 1014.4
20260504182458 15 279 14.5 24.1 0.00 0.00 0.00 1 1014.4
20260504182358 15 252 14.5 24.1 0.00 0.00 0.00 1 1014.4
20260504182258 15 265 14.5 24.1 0.00 0.00 0.00 1 1014.4
20260504182158 15 259 14.5 24.1 0.00 0.00 0.00 1 1014.4
20260504182058 14 256 14.5 24.1 0.00 0.00 0.00 1 1014.3
20260504181958 15 285 14.5 24.1 0.00 0.00 0.00 1 1014.4
20260504181852 14 255 12.9 24.1 0.00 0.00 0.00 1 1014.3
20260504181752 14 271 12.9 24.1 0.00 0.00 0.00 1 1014.4
20260504181700 15 230 11.3 24.1 0.00 0.00 0.00 1 1014.4
20260504181657 15 250 11.3 24.1 0.00 0.00 0.00 1 1014.4
20260504181452 15 271 11.3 24.1 0.00 0.00 0.00 1 1014.4
20260504181347 15 268 11.3 24.1 0.00 0.00 0.00 1 1014.4
20260504181246 14 274 11.3 19.3 0.00 0.00 0.00 1 1014.4
20260504181146 14 265 11.3 19.3 0.00 0.00 0.00 1 1014.4
20260504181046 14 280 12.9 22.5 0.00 0.00 0.00 1 1014.4
20260504180946 14 265 12.9 22.5 0.00 0.00 0.00 1 1014.4
20260504180840 14 269 12.9 22.5 0.00 0.00 0.00 1 1014.4
20260504180740 14 241 14.5 27.4 0.00 0.00 0.00 1 1014.4
20260504180640 14 279 14.5 27.4 0.00 0.00 0.00 1 1014.4
20260504180540 14 215 14.5 27.4 0.00 0.00 0.00 1 1014.4
20260504180440 14 250 16.1 27.4 0.00 0.00 0.00 1 1014.4
20260504180333 14 223 16.1 27.4 0.00 0.00 0.00 1 1014.4
20260504180241 14 243 16.1 27.4 0.00 0.00 0.00 1 1014.4
20260504180237 14 267 17.7 27.4 0.00 0.00 0.00 1 1014.4
20260504180041 14 254 16.1 27.4 0.00 0.00 0.00 1 1014.3
20260504180036 14 291 16.1 27.4 0.00 0.00 0.00 1 1014.4
20260504175827 14 244 16.1 27.4 0.00 0.00 0.00 1 1014.3
20260504175726 15 254 16.1 25.7 0.00 0.00 0.00 1 1014.2
20260504175626 15 234 14.5 25.7 0.00 0.00 0.00 1 1014.2
20260504175534 15 224 14.5 25.7 0.00 0.00 0.00 1 1014.2
20260504175529 15 217 14.5 25.7 0.00 0.00 0.00 1 1014.3
20260504175319 15 225 14.5 25.7 0.00 0.00 0.00 1 1014.2
20260504175218 15 223 12.9 25.7 0.00 0.00 0.00 1 1014.2
20260504175118 15 284 12.9 20.9 0.00 0.00 0.00 1 1014.2
20260504175026 15 212 12.9 20.9 0.00 0.00 0.00 1 1014.2
20260504175022 15 233 12.9 20.9 0.00 0.00 0.00 1 1014.2
20260504174825 15 223 12.9 20.9 0.00 0.00 0.00 1 1014.2
20260504174820 15 225 12.9 20.9 0.00 0.00 0.00 1 1014.2
20260504174617 15 228 12.9 20.9 0.00 0.00 0.00 1 1014.2
20260504174517 14 215 14.5 20.9 0.00 0.00 0.00 1 1014.1
20260504174416 14 290 12.9 20.9 0.00 0.00 0.00 1 1014.1
20260504174316 14 240 12.9 20.9 0.00 0.00 0.00 1 1014.1
20260504174216 14 188 12.9 19.3 0.00 0.00 0.00 1 1014.1
20260504174125 15 212 12.9 19.3 0.00 0.00 0.00 1 1014.1
20260504174121 15 214 12.9 19.3 0.00 0.00 0.00 1 1014.1
20260504173914 15 180 12.9 19.3 0.00 0.00 0.00 1 1014.1
20260504173814 15 198 11.3 19.3 0.00 0.00 0.00 1 1014.1
20260504173713 15 265 11.3 19.3 0.00 0.00 0.00 1 1014.1
20260504173613 15 228 11.3 19.3 0.00 0.00 0.00 1 1014.1
20260504173512 15 234 11.3 19.3 0.00 0.00 0.00 1 1014.1
20260504173412 15 248 11.3 19.3 0.00 0.00 0.00 1 1014.1
20260504173312 15 273 11.3 19.3 0.00 0.00 0.00 1 1014.1
20260504173212 15 257 11.3 20.9 0.00 0.00 0.00 1 1014.1
20260504173107 14 210 11.3 20.9 0.00 0.00 0.00 1 1014.1
20260504173006 14 194 11.3 20.9 0.00 0.00 0.00 1 1014.1
20260504172906 14 215 12.9 20.9 0.00 0.00 0.00 1 1014.1
20260504172806 14 234 12.9 20.9 0.00 0.00 0.00 1 1014.1
20260504172705 14 250 12.9 20.9 0.00 0.00 0.00 1 1014.1
20260504172558 14 247 12.9 20.9 0.00 0.00 0.00 1 1014.1
20260504172458 14 257 12.9 20.9 0.00 0.00 0.00 1 1014.0
20260504172358 14 221 12.9 20.9 0.00 0.00 0.00 1 1014.0
20260504172259 14 265 11.3 20.9 0.00 0.00 0.00 1 1014.0
20260504172158 14 244 11.3 20.9 0.00 0.00 0.00 3 1014.0
20260504172052 14 227 11.3 20.9 0.00 0.00 0.00 5 1014.0
20260504171952 15 223 11.3 20.9 0.00 0.00 0.00 2 1014.0
20260504171853 15 232 11.3 20.9 0.00 0.00 0.00 1 1013.9
20260504171753 14 230 11.3 19.3 0.00 0.00 0.00 2 1013.9
20260504171652 14 203 11.3 19.3 0.00 0.00 0.00 3 1013.9
20260504171555 14 295 11.3 20.9 0.00 0.00 0.00 6 1013.8
20260504171550 14 248 11.3 19.3 0.00 0.00 0.00 5 1013.9
20260504171346 14 184 11.3 20.9 0.00 0.00 0.00 8 1013.8
20260504171247 14 214 11.3 20.9 0.00 0.00 0.00 8 1013.8
20260504171146 15 216 11.3 20.9 0.00 0.00 0.00 8 1013.8
20260504171040 15 231 11.3 20.9 0.00 0.00 0.00 5 1013.8
20260504170940 15 202 11.3 20.9 0.00 0.00 0.00 8 1013.7
20260504170840 15 198 11.3 20.9 0.00 0.00 0.00 11 1013.7
20260504170740 15 207 11.3 20.9 0.00 0.00 0.00 12 1013.7
20260504170640 15 250 9.7 20.9 0.00 0.00 0.00 10 1013.7
20260504170534 15 234 9.7 20.9 0.00 0.00 0.00 9 1013.7
20260504170434 15 219 9.7 19.3 0.00 0.00 0.00 8 1013.7
20260504170335 15 194 9.7 19.3 0.00 0.00 0.00 6 1013.7
20260504170235 15 221 9.7 19.3 0.00 0.00 0.00 4 1013.6
20260504170133 15 215 9.7 19.3 0.00 0.00 0.00 3 1013.7
20260504160422 13 242 8.0 12.9 0.00 0.00 0.00 1 1013.9
20260504160322 13 205 8.0 12.9 0.00 0.00 0.00 1 1013.9
20260504160222 13 262 8.0 12.9 0.00 0.00 0.00 1 1013.9
20260504160122 13 252 8.0 12.9 0.00 0.00 0.00 1 1013.9
20260504151136 13 201 6.4 12.9 0.00 0.00 0.00 1 1013.7
20260504151036 13 226 8.0 12.9 0.00 0.00 0.00 1 1013.7
20260504150936 13 265 8.0 12.9 0.00 0.00 0.00 1 1013.7
20260504150836 13 249 6.4 12.9 0.00 0.00 0.00 1 1013.7
20260504150736 13 242 6.4 12.9 0.00 0.00 0.00 1 1013.7
20260504150629 12 254 6.4 12.9 0.00 0.00 0.00 1 1013.7
20260504150531 12 221 6.4 12.9 0.00 0.00 0.00 1 1013.6
20260504150430 12 240 4.8 12.9 0.00 0.00 0.00 1 1013.6
20260504150330 12 248 4.8 12.9 0.00 0.00 0.00 1 1013.6
20260504150230 12 225 4.8 9.7 0.00 0.00 0.00 1 1013.6
20260504150124 12 227 4.8 9.7 0.00 0.00 0.00 1 1013.6
20260504141303 12 229 3.2 6.4 0.00 0.00 0.00 1 1013.5
20260504141258 12 232 3.2 6.4 0.00 0.00 0.00 1 1013.5
20260504141254 12 229 3.2 6.4 0.00 0.00 0.00 1 1013.6
20260504140946 12 231 3.2 6.4 0.00 0.00 0.00 1 1013.5
20260504140844 12 231 3.2 6.4 0.00 0.00 0.00 1 1013.5
20260504140744 12 234 3.2 6.4 0.00 0.00 0.00 1 1013.5
20260504140644 12 236 3.2 4.8 0.00 0.00 0.00 1 1013.5
20260504140544 12 237 3.2 4.8 0.00 0.00 0.00 1 1013.5
20260504140505 12 242 3.2 4.8 0.00 0.00 0.00 1 1013.5
20260504140501 12 237 3.2 4.8 0.00 0.00 0.00 1 1013.5
20260504140248 12 242 3.2 4.8 0.00 0.00 0.00 1 1013.5
20260504130818 12 231 3.2 8.0 0.00 0.00 0.00 1 1013.2
20260504130718 12 230 3.2 8.0 0.00 0.00 0.00 1 1013.2
20260504130618 12 230 3.2 8.0 0.00 0.00 0.00 1 1013.2
20260504130517 12 244 3.2 6.4 0.00 0.00 0.00 1 1013.2
20260504130417 12 246 3.2 6.4 0.00 0.00 0.00 1 1013.1
20260504130326 12 248 3.2 6.4 0.00 0.00 0.00 1 1013.2
20260504130322 12 248 3.2 6.4 0.00 0.00 0.00 1 1013.1
20260504130118 12 247 3.2 6.4 0.00 0.00 0.00 1 1013.2
20260504120306 12 240 3.2 6.4 0.00 0.00 0.00 1 1013.0
20260504120206 12 240 3.2 6.4 0.00 0.00 0.00 1 1013.0
20260504120106 12 240 3.2 6.4 0.00 0.00 0.00 1 1013.0
20260504110649 12 257 3.2 9.7 0.00 0.00 0.00 1 1012.9
20260504110547 12 225 4.8 9.7 0.00 0.00 0.00 1 1012.9
20260504110441 12 225 4.8 9.7 0.00 0.00 0.00 1 1013.0
20260504110341 12 225 4.8 9.7 0.00 0.00 0.00 1 1012.9
20260504110241 12 225 4.8 9.7 0.00 0.00 0.00 1 1012.9
20260504110150 12 257 4.8 9.7 0.00 0.00 0.00 1 1012.9
20260504110145 12 225 4.8 9.7 0.00 0.00 0.00 1 1013.0